EHI
0 0 0 0 0 0 0 0 0 0 0 0 1 1 1 4 10 16 22 29 36 42 46 47 49 51 48 42 38 35 31 27 21 17 13 10 7 6 5 4 4 6 8 9
0 0 0 0 0 0 0 0 0 0 0 1 2 2 1 4 9 15 22 30 37 43 47 50 53 55 52 45 39 35 32 27 21 17 14 11 8 6 5 4 4 6 8 9
0 0 0 0 0 0 0 0 0 0 0 1 2 2 1 3 8 14 22 31 39 44 47 53 59 61 58 50 41 36 32 27 22 20 18 14 10 8 7 5 4 5 6 7
0 0 0 0 0 0 0 0 0 0 0 0 1 1 0 3 9 16 24 33 40 44 47 53 61 66 64 56 46 38 32 28 25 23 21 18 15 12 9 6 4 4 5 6
0 0 0 0 0 0 0 0 0 0 0 0 0 0 0 4 11 19 26 35 43 47 49 54 62 67 67 61 52 44 37 31 26 24 22 19 17 15 11 7 5 3 4 5
0 0 0 0 0 0 0 0 0 0 0 0 0 0 0 3 10 18 27 38 47 52 54 58 64 69 69 65 59 52 45 36 27 23 21 18 17 16 13 9 6 5 4 4
0 0 0 0 0 0 0 0 0 0 0 0 0 0 0 2 7 15 26 39 50 57 61 63 67 71 70 68 63 56 48 38 30 25 22 20 17 15 13 10 9 8 7 6
0 0 0 0 0 0 0 0 0 0 0 0 0 0 1 4 8 15 26 39 51 60 64 66 67 67 68 67 62 55 47 38 31 28 25 22 18 14 13 12 11 11 10 9
0 0 0 0 0 0 0 0 0 0 0 0 0 1 3 7 12 18 27 37 47 55 60 62 63 62 62 61 56 50 45 38 32 29 27 22 17 15 15 14 11 10 9 9
0 0 0 0 0 0 0 0 0 0 0 0 0 1 4 10 16 22 27 34 42 49 52 54 57 57 57 54 48 44 42 38 33 28 25 19 16 16 16 13 9 6 6 6
0 0 0 0 0 0 0 0 0 0 0 0 0 0 4 11 20 26 29 33 41 46 47 48 51 55 56 52 45 42 40 38 35 30 24 19 16 15 14 11 7 5 4 4
0 0 0 0 0 0 0 0 0 0 0 0 0 1 5 13 22 30 33 34 39 45 46 47 49 53 57 57 51 46 44 42 39 35 27 19 15 13 11 10 9 6 4 4
0 0 0 0 0 0 0 0 0 0 0 0 1 2 7 16 25 32 36 37 39 44 48 51 52 55 60 62 58 53 50 47 43 38 29 19 12 10 10 10 9 6 5 6
0 0 0 0 0 0 0 0 0 0 0 1 2 4 10 18 25 30 34 37 42 47 52 56 57 59 63 65 62 56 52 49 45 39 30 20 12 10 10 9 7 5 5 6
0 0 0 0 0 0 0 0 0 0 0 2 4 7 11 17 21 25 28 35 42 47 53 58 60 62 66 66 61 54 49 48 45 40 33 23 15 13 11 8 6 4 3 3
0 0 0 0 0 0 0 0 0 1 1 3 7 11 13 16 19 22 28 36 41 46 52 57 61 65 68 68 63 55 50 46 44 41 35 26 20 16 12 9 7 5 4 4
0 0 0 0 0 0 0 0 1 3 4 5 8 12 14 16 19 24 31 36 40 43 49 55 60 66 68 67 65 60 55 49 44 41 36 28 21 15 10 8 7 7 7 7
0 0 0 0 0 0 0 0 3 8 10 8 7 10 13 16 21 28 33 35 37 40 45 51 56 62 65 64 63 62 59 54 48 42 35 28 21 14 9 7 7 8 9 9
0 0 0 0 0 0 0 1 4 12 16 13 10 12 15 19 25 31 35 37 39 42 44 47 51 56 60 60 58 57 58 57 52 43 35 29 24 18 12 9 9 9 10 9
0 0 0 0 0 0 1 2 4 11 15 15 16 19 20 20 24 31 37 41 44 46 45 46 48 51 56 57 54 52 52 52 49 41 34 30 26 21 15 11 10 10 10 9
0 0 0 0 0 0 2 4 5 6 10 15 21 23 23 22 25 33 40 44 46 47 49 49 48 47 49 52 52 51 48 44 40 37 32 28 25 20 14 10 10 10 9 8
0 0 0 0 0 0 3 5 5 5 9 17 24 26 27 31 35 39 43 45 45 47 49 49 47 43 43 46 49 50 45 38 33 31 28 23 20 16 12 9 9 9 7 6
1 1 2 3 3 4 7 9 8 9 14 21 27 30 34 40 43 43 44 43 42 42 44 46 44 41 40 42 46 46 41 35 31 28 24 20 17 14 12 11 9 8 6 5
3 4 7 8 8 9 12 13 13 14 17 22 26 30 37 41 42 41 41 39 36 36 38 41 41 40 39 40 42 39 35 32 29 25 21 18 15 13 12 11 9 7 5 4
4 6 8 9 9 11 12 13 15 17 19 21 23 27 34 39 38 37 35 33 30 30 32 34 36 36 34 34 34 31 28 28 25 22 19 16 14 12 11 10 7 5 3 3
3 5 6 6 7 9 10 11 14 17 19 20 22 25 33 37 36 33 30 28 27 27 28 28 30 31 29 27 27 24 23 24 23 20 18 15 13 11 10 9 6 4 2 1
Wind_Speed
2 3 3 7 6 6 4 3 3 4 3 4 5 8 11 11 10 10 10 10 10 10 9 9 10 11 10 8 8 8 7 6 5 3 3 3 2 2 2 3 4 4 4 4
5 4 10 7 5 3 2 2 2 1 2 4 3 4 7 9 12 12 13 12 12 10 8 9 9 10 10 10 9 8 8 7 6 4 3 3 2 2 2 2 2 3 4 4
6 9 6 4 4 3 3 3 3 2 2 4 6 2 2 4 5 8 10 12 12 14 13 12 11 10 10 10 10 9 8 7 6 5 3 2 2 1 1 1 1 2 3 3
6 8 5 5 5 3 4 5 3 4 3 2 3 2 5 4 4 7 9 11 12 13 13 12 11 11 12 11 9 8 8 7 6 6 5 5 4 3 3 2 2 2 3 3
6 4 3 5 6 3 5 4 2 3 3 2 2 3 5 1 4 8 9 11 12 12 14 13 13 12 11 10 9 8 8 7 6 6 6 5 3 3 2 2 3 2 2 2
7 5 4 6 5 3 2 4 6 6 5 2 3 3 5 5 9 8 8 10 10 11 12 11 10 8 8 8 8 8 8 7 7 6 6 6 6 5 4 3 3 2 1 2
7 8 5 3 2 4 4 7 5 6 5 5 3 2 7 7 8 9 10 10 10 10 11 11 11 10 9 9 9 8 8 7 7 7 6 7 6 6 6 4 4 3 2 2
3 8 6 3 6 5 3 10 8 5 4 5 4 2 6 5 4 4 6 8 9 10 10 11 12 12 11 11 10 9 9 7 7 7 7 6 6 4 4 4 4 3 3 2
5 7 7 5 4 7 3 4 9 8 2 1 4 4 6 2 3 2 5 7 8 10 11 11 11 11 10 10 10 10 9 8 7 7 6 6 5 5 5 4 4 3 2 2
8 5 7 5 2 1 7 7 7 6 4 2 4 3 3 2 2 2 4 8 8 8 9 10 10 10 10 9 8 9 9 8 7 7 7 6 6 5 5 4 4 3 3 2
6 5 7 4 2 5 1 3 6 5 6 7 3 6 6 7 6 6 5 6 10 10 10 10 9 9 9 8 8 8 8 7 6 7 6 6 5 5 4 4 4 3 3 3
3 6 3 7 6 5 6 6 8 5 4 5 5 7 5 6 8 8 6 5 7 8 8 9 9 8 8 9 8 8 8 7 7 7 6 5 5 5 4 4 3 3 3 2
3 6 1 8 9 6 1 2 5 6 5 4 4 6 3 1 4 5 6 5 6 6 6 6 7 7 8 9 9 8 8 8 7 7 7 6 5 5 5 4 4 4 3 2
5 5 7 7 7 3 3 3 1 6 4 4 6 6 4 3 5 5 6 6 7 5 6 7 7 7 8 8 7 7 7 7 7 7 7 6 5 5 5 4 4 4 3 3
6 3 1 3 4 2 2 4 2 2 6 8 8 8 9 9 10 9 8 7 7 6 6 7 7 7 7 7 7 7 7 7 8 8 7 6 5 5 5 4 4 4 3 3
5 3 3 4 4 4 4 4 4 3 1 4 5 4 6 6 4 4 6 8 8 7 8 8 7 7 7 8 8 8 8 8 8 8 7 6 6 6 5 5 4 4 3 3
2 4 3 3 6 5 4 3 2 3 1 4 5 6 4 3 5 7 8 9 8 8 7 7 7 7 7 7 8 9 8 8 8 8 7 7 7 6 5 5 5 4 3 3
4 3 2 0 3 3 8 3 2 3 3 2 3 3 5 6 6 6 7 10 10 8 7 7 7 7 6 6 6 7 8 8 8 8 7 7 7 6 5 5 4 4 3 3
7 7 3 2 1 5 6 4 2 2 4 2 3 2 2 3 5 3 0 4 7 7 6 6 6 7 6 6 7 7 7 7 8 8 7 7 7 7 6 5 4 3 3 3
4 6 5 3 3 5 6 6 3 5 2 3 3 4 3 5 4 3 2 3 4 4 5 5 5 6 6 5 7 8 7 7 7 7 7 7 7 7 7 6 4 3 3 3
4 3 3 4 4 6 5 6 4 2 6 4 1 3 4 4 5 5 2 2 3 4 4 5 6 6 6 6 8 8 7 7 6 6 6 5 5 5 5 4 3 3 3 3
2 1 2 2 3 7 5 4 1 4 3 1 1 1 4 5 5 5 4 4 5 5 5 6 6 5 4 6 8 7 6 5 6 7 6 6 5 4 4 5 4 4 4 3
1 4 4 4 5 4 2 1 2 1 1 1 1 2 5 6 6 6 4 4 5 6 5 5 6 5 4 5 7 7 5 6 7 7 6 6 5 3 3 4 4 3 3 3
4 1 1 1 2 3 3 2 3 3 2 2 3 4 5 7 6 5 5 5 5 6 5 5 7 7 4 4 4 5 6 7 8 8 6 5 5 4 3 3 3 3 3 3
3 2 2 1 3 4 5 4 3 4 5 4 4 4 4 8 7 5 5 5 5 5 4 5 6 6 5 4 5 5 6 7 8 7 6 5 5 5 4 3 2 3 2 3
2 2 3 4 4 2 4 4 3 4 3 3 4 5 2 4 6 5 5 4 5 5 4 5 5 5 4 4 4 4 5 7 7 6 5 4 4 4 4 4 2 2 1 1
Wind_Direction
332 66 254 246 223 214 218 230 241 242 192 124 146 158 171 174 178 179 177 173 176 188 185 175 172 163 160 161 160 161 161 169 160 155 154 154 170 184 185 189 190 185 183 176
12 274 242 240 253 257 236 274 269 290 122 121 134 158 178 177 187 185 181 179 183 185 175 175 172 167 168 170 168 165 168 171 173 173 165 163 163 186 190 192 190 194 187 184
223 247 254 256 270 279 266 208 217 189 36 60 99 18 222 217 191 181 186 184 184 183 179 180 178 176 171 174 175 176 175 172 174 167 146 134 114 96 111 168 186 203 181 178
249 255 265 265 256 213 263 241 187 147 100 257 132 179 265 231 199 194 193 188 192 184 179 182 181 177 178 180 176 172 173 171 173 166 163 164 170 183 201 189 189 202 191 186
264 268 262 253 246 219 221 225 158 145 128 38 23 119 280 170 199 214 201 192 192 185 180 183 183 181 178 175 173 172 170 173 176 175 175 172 178 189 186 168 176 194 204 199
256 272 235 232 250 219 184 53 32 46 68 21 261 141 257 219 204 201 201 193 182 178 177 178 173 161 165 166 166 166 168 178 179 176 176 178 180 179 172 175 177 186 194 205
306 303 282 243 275 332 87 82 33 3 13 259 270 150 241 241 206 192 190 187 172 166 168 166 163 161 165 168 169 168 170 179 180 179 184 187 187 183 183 183 181 178 180 193
243 285 277 236 186 190 174 133 151 186 216 278 328 233 257 251 196 182 168 163 158 160 168 171 171 169 171 173 173 172 176 181 182 184 189 190 186 185 189 188 180 184 193 202
199 253 280 267 216 158 159 165 165 140 169 288 295 301 320 25 69 96 133 144 160 167 173 174 172 171 171 173 178 175 177 181 185 188 186 188 188 185 183 179 178 182 191 188
180 245 285 293 348 261 164 154 99 113 145 245 292 278 243 229 188 146 148 156 168 176 175 173 174 174 173 175 177 174 178 182 185 186 188 189 189 187 181 175 181 182 177 167
163 187 291 346 188 223 183 118 113 123 151 155 219 265 231 193 174 169 182 181 169 177 176 174 173 173 170 169 173 175 179 180 183 185 183 176 176 177 174 174 180 172 163 154
166 140 246 266 259 215 177 174 145 150 211 164 164 258 259 190 168 158 169 183 175 175 174 172 167 164 166 168 171 174 175 177 180 175 165 165 164 160 163 170 174 162 156 160
122 113 74 333 337 352 35 168 150 135 127 149 161 255 289 160 141 149 155 160 159 167 169 161 155 161 169 170 171 170 174 174 167 161 156 155 156 157 162 163 155 146 148 143
95 106 153 196 223 255 297 304 146 121 150 195 200 204 247 193 165 163 158 154 142 149 169 168 166 172 172 170 166 163 166 166 158 151 150 154 160 160 159 154 148 144 139 132
74 89 180 226 238 241 268 292 293 203 191 184 205 190 210 203 189 182 167 153 137 151 165 173 174 171 165 160 159 163 167 167 159 153 155 162 159 151 146 146 146 139 133 136
52 75 30 340 333 350 324 318 318 290 204 166 156 213 221 203 177 154 160 155 159 173 180 174 163 157 162 166 165 167 171 168 157 157 161 161 154 149 146 145 141 136 134 133
34 75 58 304 318 11 314 289 313 312 299 156 186 220 196 167 179 175 173 163 171 186 183 170 164 162 166 172 171 173 167 162 157 160 164 161 158 157 159 153 146 145 141 131
140 96 118 315 18 245 247 276 59 63 12 79 143 175 177 177 187 179 164 163 180 189 179 171 166 163 168 173 167 161 156 159 163 164 166 162 158 156 153 150 154 155 147 146
156 142 132 128 205 274 297 321 356 67 343 13 125 146 146 129 82 36 209 174 181 182 176 174 168 161 161 163 158 151 156 159 162 164 165 164 161 156 155 159 164 159 151 150
84 115 131 150 185 231 253 289 305 79 325 315 115 138 166 126 121 238 240 161 152 160 162 158 151 140 146 157 151 146 154 156 166 169 164 159 160 158 160 164 164 156 147 153
25 48 145 183 217 252 268 305 18 95 227 276 208 156 167 188 188 190 178 145 137 139 141 140 137 143 153 152 144 147 152 167 168 152 144 144 149 149 149 149 149 143 138 134
175 142 187 158 207 250 317 2 90 226 246 267 330 122 143 145 126 118 123 125 115 111 119 129 127 133 145 142 140 145 158 158 138 134 136 134 132 140 146 141 139 135 139 141
160 184 190 189 215 250 305 197 223 141 88 9 59 89 134 128 126 117 120 116 108 108 111 116 118 116 114 131 137 143 151 141 136 134 139 140 132 134 153 151 146 139 143 149
313 357 90 358 289 310 331 24 26 39 46 33 83 111 126 121 122 119 128 121 113 108 110 109 110 112 108 115 123 135 138 137 137 135 143 146 140 148 155 140 144 151 161 165
279 343 22 308 289 347 349 358 15 13 33 46 57 74 126 127 125 131 131 128 121 109 109 118 120 121 122 116 115 123 136 140 140 142 149 152 149 154 148 138 148 165 182 181
260 205 190 231 242 215 280 307 6 35 37 71 79 62 52 132 128 123 119 121 121 122 127 119 116 118 118 117 118 127 141 145 143 145 155 161 159 157 153 144 108 57 105 122